Location: Unspecified
(0.0000°N, 0.0000°E)
Time: 11:40:05
(UTC+02:00)

Palapa 6 Rocket - Visible Passes

Search period start: 23 October 2017 00:00
Search period end: 01 November 2017 23:00
Orbit: 485 x 1220 km, 22.7° (Epoch: 22 October)

Date Brightness Start Highest point End Pass type
(mag) Time Alt. Az. Time Alt. Az. Time Alt. Az.
23 Oct 5.3 06:55:57 10° SSW 06:58:03 14° SSE 07:00:09 10° SE visible
23 Oct 4.6 21:27:44 10° WNW 21:35:35 60° SSW 21:38:22 38° SE visible
23 Oct 6.8 23:19:31 10° WSW 23:20:19 12° WSW 23:20:19 12° WSW visible
24 Oct 5.1 06:41:22 10° SSW 06:43:54 17° SSE 06:46:24 10° ESE visible
24 Oct 4.9 21:13:12 10° W 21:21:01 55° SSW 21:25:36 24° SE visible
24 Oct 6.5 23:05:10 10° WSW 23:07:33 17° SW 23:07:33 17° SW visible
25 Oct 4.9 06:26:50 10° SSW 06:29:46 20° SSE 06:32:36 10° ESE visible
25 Oct 5.1 20:58:43 10° W 21:06:28 50° SSW 21:12:48 14° SE visible
25 Oct 6.3 22:50:50 10° WSW 22:54:45 19° SW 22:54:45 19° SW visible
26 Oct 4.6 06:13:52 18° SSW 06:15:37 24° SSE 06:18:44 10° ESE visible
26 Oct 5.3 20:44:16 10° W 20:51:54 45° SSW 20:59:10 10° SE visible
26 Oct 6.2 22:36:33 10° WSW 22:41:47 19° SSW 22:41:53 19° SSW visible
27 Oct 4.2 06:00:59 29° S 06:01:29 30° SSE 06:04:51 10° E visible
27 Oct 5.6 20:29:54 10° W 20:37:20 41° SSW 20:44:37 10° SE visible
27 Oct 6.2 22:22:17 10° WSW 22:27:23 18° SSW 22:28:58 17° S visible
28 Oct 4.3 05:48:08 33° SE 05:48:08 33° SE 05:50:56 10° E visible
28 Oct 5.7 20:15:34 10° W 20:22:48 38° SSW 20:30:02 10° SE visible
28 Oct 6.3 22:08:03 10° SW 22:12:59 17° SSW 22:15:58 14° S visible
29 Oct 5.0 04:35:18 24° E 04:35:18 24° E 04:36:59 10° E visible
29 Oct 5.9 19:01:19 10° W 19:08:16 34° SSW 19:15:23 10° SE visible
29 Oct 6.5 20:53:51 10° SW 20:58:36 17° SSW 21:02:52 11° SSE visible
30 Oct 5.7 04:22:27 14° E 04:22:27 14° E 04:22:59 10° ENE visible
30 Oct 3.8 06:04:23 13° WNW 06:07:19 26° NNW 06:10:31 10° NE visible
30 Oct 6.5 20:39:42 10° SW 20:44:13 16° SSW 20:48:38 10° SSE visible
31 Oct 4.1 05:51:30 18° WNW 05:53:07 23° NNW 05:56:13 10° NNE visible
31 Oct 6.6 20:25:35 10° SW 20:29:51 15° S 20:34:04 10° SSE visible
01 Nov 4.3 05:38:34 20° NNW 05:38:56 20° NNW 05:41:55 10° NNE visible
01 Nov 6.6 20:11:31 10° SW 20:15:29 14° S 20:19:28 10° SSE visible
01 Nov 6.8 22:04:02 10° SSW 22:04:53 11° SSW 22:04:53 11° SSW visible
